Time,TemperatureF,DewpointF,PressureIn,WindDirection,WindDirectionDegrees,WindSpeedMPH,WindSpeedGustMPH,Humidity,HourlyPrecipIn,Conditions,Clouds,dailyrainin,SoftwareType,DateUTC
2013-06-01 00:01:00,55.0,-99.9,30.27,WNW,293,7.0,10.0,-999,-99.99,,,-99.99,,2013-06-01 07:01:00,
2013-06-01 00:11:00,55.0,-99.9,30.27,WNW,291,6.0,7.0,-999,-99.99,,,-99.99,,2013-06-01 07:11:00,
2013-06-01 00:22:00,55.0,-99.9,30.27,WNW,298,8.0,9.0,-999,-99.99,,,-99.99,,2013-06-01 07:22:00,
2013-06-01 00:32:00,54.0,-99.9,30.26,NW,313,7.0,7.0,-999,-99.99,,,-99.99,,2013-06-01 07:32:00,
2013-06-01 00:42:00,54.0,-99.9,30.26,NNW,332,1.0,9.0,-999,-99.99,,,-99.99,,2013-06-01 07:42:00,
2013-06-01 00:52:00,54.0,-99.9,30.26,North,349,1.0,6.0,-999,-99.99,,,-99.99,,2013-06-01 07:52:00,
2013-06-01 01:02:00,54.0,-99.9,30.26,NW,316,7.0,9.0,-999,-99.99,,,-99.99,,2013-06-01 08:02:00,
2013-06-01 01:11:00,54.0,-99.9,30.26,NW,314,9.0,9.0,-999,-99.99,,,-99.99,,2013-06-01 08:11:00,
2013-06-01 01:22:00,54.0,-99.9,30.26,NW,312,7.0,8.0,-999,-99.99,,,-99.99,,2013-06-01 08:22:00,
2013-06-01 01:32:00,54.0,-99.9,30.26,NW,314,7.0,9.0,-999,-99.99,,,-99.99,,2013-06-01 08:32:00,
2013-06-01 01:42:00,54.0,-99.9,30.26,NW,313,7.0,9.0,-999,-99.99,,,-99.99,,2013-06-01 08:42:00,
2013-06-01 01:52:00,54.0,-99.9,30.26,NW,314,6.0,7.0,-999,-99.99,,,-99.99,,2013-06-01 08:52:00,
2013-06-01 02:02:00,54.0,-99.9,30.26,NW,314,7.0,8.0,-999,-99.99,,,-99.99,,2013-06-01 09:02:00,
2013-06-01 02:12:00,54.0,-99.9,30.25,NW,313,3.0,6.0,-999,-99.99,,,-99.99,,2013-06-01 09:12:00,
2013-06-01 02:22:00,55.0,-99.9,30.25,NW,315,3.0,5.0,-999,-99.99,,,-99.99,,2013-06-01 09:22:00,
2013-06-01 02:33:00,54.0,-99.9,30.25,NW,311,5.0,6.0,-999,-99.99,,,-99.99,,2013-06-01 09:33:00,
2013-06-01 02:43:00,54.0,-99.9,30.26,NW,313,6.0,7.0,-999,-99.99,,,-99.99,,2013-06-01 09:43:00,
2013-06-01 02:53:00,54.0,-99.9,30.26,NW,310,7.0,8.0,-999,-99.99,,,-99.99,,2013-06-01 09:53:00,
2013-06-01 03:02:00,54.0,-99.9,30.25,NW,309,4.0,7.0,-999,-99.99,,,-99.99,,2013-06-01 10:02:00,
2013-06-01 03:13:00,54.0,-99.9,30.25,NW,321,3.0,6.0,-999,-99.99,,,-99.99,,2013-06-01 10:13:00,
2013-06-01 03:22:00,53.0,-99.9,30.25,NW,307,5.0,7.0,-999,-99.99,,,-99.99,,2013-06-01 10:22:00,
2013-06-01 03:33:00,53.0,-99.9,30.25,NW,313,3.0,7.0,-999,-99.99,,,-99.99,,2013-06-01 10:33:00,
2013-06-01 03:42:00,54.0,-99.9,30.25,WNW,298,2.0,4.0,-999,-99.99,,,-99.99,,2013-06-01 10:42:00,
2013-06-01 03:53:00,54.0,-99.9,30.25,NNW,327,2.0,4.0,-999,-99.99,,,-99.99,,2013-06-01 10:53:00,
2013-06-01 04:03:00,54.0,-99.9,30.24,SW,224,2.0,3.0,-999,-99.99,,,-99.99,,2013-06-01 11:03:00,
2013-06-01 04:11:00,54.0,-99.9,30.24,SSW,205,2.0,3.0,-999,-99.99,,,-99.99,,2013-06-01 11:11:00,
2013-06-01 04:22:00,54.0,-99.9,30.24,South,170,2.0,4.0,-999,-99.99,,,-99.99,,2013-06-01 11:22:00,
2013-06-01 04:33:00,54.0,-99.9,30.24,West,268,3.0,4.0,-999,-99.99,,,-99.99,,2013-06-01 11:33:00,
2013-06-01 04:42:00,54.0,-99.9,30.24,WSW,248,1.0,4.0,-999,-99.99,,,-99.99,,2013-06-01 11:42:00,
2013-06-01 04:52:00,54.0,-99.9,30.24,West,271,2.0,4.0,-999,-99.99,,,-99.99,,2013-06-01 11:52:00,
2013-06-01 05:01:00,53.0,-99.9,30.23,WNW,288,1.0,3.0,-999,-99.99,,,-99.99,,2013-06-01 12:01:00,
2013-06-01 05:12:00,53.0,-99.9,30.23,SE,132,1.0,2.0,-999,-99.99,,,-99.99,,2013-06-01 12:12:00,
2013-06-01 05:22:00,53.0,-99.9,30.23,SSW,199,3.0,3.0,-999,-99.99,,,-99.99,,2013-06-01 12:22:00,
2013-06-01 05:32:00,53.0,-99.9,30.23,West,265,4.0,5.0,-999,-99.99,,,-99.99,,2013-06-01 12:32:00,
2013-06-01 05:42:00,53.0,-99.9,30.23,WSW,257,3.0,5.0,-999,-99.99,,,-99.99,,2013-06-01 12:42:00,
2013-06-01 05:52:00,52.0,-99.9,30.23,NW,306,4.0,8.0,-999,-99.99,,,-99.99,,2013-06-01 12:52:00,
2013-06-01 06:01:00,53.0,-99.9,30.24,NW,310,4.0,5.0,-999,-99.99,,,-99.99,,2013-06-01 13:01:00,
2013-06-01 06:12:00,53.0,-99.9,30.24,West,267,5.0,6.0,-999,-99.99,,,-99.99,,2013-06-01 13:12:00,
2013-06-01 06:22:00,52.0,-99.9,30.23,West,265,4.0,6.0,-999,-99.99,,,-99.99,,2013-06-01 13:22:00,
2013-06-01 06:32:00,52.0,-99.9,30.23,SW,231,-999.0,2.0,-999,-99.99,,,-99.99,,2013-06-01 13:32:00,
2013-06-01 06:42:00,52.0,-99.9,30.23,WSW,253,2.0,5.0,-999,-99.99,,,-99.99,,2013-06-01 13:42:00,
2013-06-01 06:52:00,52.0,-99.9,30.23,NNW,330,0.0,2.0,-999,-99.99,,,-99.99,,2013-06-01 13:52:00,
2013-06-01 07:02:00,52.0,-99.9,30.23,WSW,253,2.0,4.0,-999,-99.99,,,-99.99,,2013-06-01 14:02:00,
2013-06-01 07:11:00,53.0,-99.9,30.23,SSW,203,3.0,4.0,-999,-99.99,,,-99.99,,2013-06-01 14:11:00,
2013-06-01 07:22:00,53.0,-99.9,30.23,SW,224,5.0,5.0,-999,-99.99,,,-99.99,,2013-06-01 14:22:00,
2013-06-01 07:32:00,53.0,-99.9,30.22,West,276,-999.0,4.0,-999,-99.99,,,-99.99,,2013-06-01 14:32:00,
2013-06-01 07:42:00,53.0,-99.9,30.23,WSW,245,5.0,6.0,-999,-99.99,,,-99.99,,2013-06-01 14:42:00,
2013-06-01 07:52:00,53.0,-99.9,30.23,West,267,5.0,7.0,-999,-99.99,,,-99.99,,2013-06-01 14:52:00,
2013-06-01 08:02:00,55.0,-99.9,30.22,SSE,151,2.0,3.0,-999,-99.99,,,-99.99,,2013-06-01 15:02:00,
2013-06-01 08:11:00,54.0,-99.9,30.22,WSW,257,7.0,7.0,-999,-99.99,,,-99.99,,2013-06-01 15:11:00,
2013-06-01 08:22:00,53.0,-99.9,30.22,West,277,6.0,8.0,-999,-99.99,,,-99.99,,2013-06-01 15:22:00,
2013-06-01 08:33:00,53.0,-99.9,30.22,NW,321,2.0,4.0,-999,-99.99,,,-99.99,,2013-06-01 15:33:00,
2013-06-01 08:43:00,53.0,-99.9,30.22,WNW,297,6.0,7.0,-999,-99.99,,,-99.99,,2013-06-01 15:43:00,
2013-06-01 08:54:00,53.0,-99.9,30.22,NNW,329,2.0,6.0,-999,-99.99,,,-99.99,,2013-06-01 15:54:00,
2013-06-01 09:03:00,55.0,-99.9,30.22,NW,314,2.0,4.0,-999,-99.99,,,-99.99,,2013-06-01 16:03:00,
2013-06-01 09:13:00,55.0,-99.9,30.22,NW,306,3.0,5.0,-999,-99.99,,,-99.99,,2013-06-01 16:13:00,
2013-06-01 09:23:00,54.0,-99.9,30.21,WNW,302,4.0,5.0,-999,-99.99,,,-99.99,,2013-06-01 16:23:00,
2013-06-01 09:33:00,54.0,-99.9,30.21,WNW,291,4.0,5.0,-999,-99.99,,,-99.99,,2013-06-01 16:33:00,
2013-06-01 09:43:00,54.0,-99.9,30.21,WNW,296,4.0,6.0,-999,-99.99,,,-99.99,,2013-06-01 16:43:00,
2013-06-01 09:53:00,55.0,-99.9,30.21,North,354,0.0,5.0,-999,-99.99,,,-99.99,,2013-06-01 16:53:00,
2013-06-01 10:02:00,54.0,-99.9,30.21,NW,321,1.0,3.0,-999,-99.99,,,-99.99,,2013-06-01 17:02:00,
2013-06-01 10:12:00,55.0,-99.9,30.21,NW,326,4.0,5.0,-999,-99.99,,,-99.99,,2013-06-01 17:12:00,
2013-06-01 10:22:00,54.0,-99.9,30.20,NNW,327,6.0,8.0,-999,-99.99,,,-99.99,,2013-06-01 17:22:00,
2013-06-01 10:32:00,54.0,-99.9,30.20,NW,324,6.0,7.0,-999,-99.99,,,-99.99,,2013-06-01 17:32:00,
2013-06-01 10:43:00,54.0,-99.9,30.19,NNW,328,-999.0,1.0,-999,-99.99,,,-99.99,,2013-06-01 17:43:00,
2013-06-01 10:52:00,54.0,-99.9,30.19,NW,325,0.0,2.0,-999,-99.99,,,-99.99,,2013-06-01 17:52:00,
2013-06-01 11:02:00,55.0,-99.9,30.19,NW,317,-999.0,3.0,-999,-99.99,,,-99.99,,2013-06-01 18:02:00,
2013-06-01 11:12:00,57.0,-99.9,30.19,NW,313,5.0,5.0,-999,-99.99,,,-99.99,,2013-06-01 18:12:00,
2013-06-01 11:22:00,57.0,-99.9,30.18,NW,311,6.0,6.0,-999,-99.99,,,-99.99,,2013-06-01 18:22:00,
2013-06-01 11:32:00,57.0,-99.9,30.18,NNW,341,2.0,4.0,-999,-99.99,,,-99.99,,2013-06-01 18:32:00,
2013-06-01 11:42:00,58.0,-99.9,30.18,NW,322,2.0,5.0,-999,-99.99,,,-99.99,,2013-06-01 18:42:00,
2013-06-01 11:52:00,58.0,-99.9,30.18,NW,319,3.0,5.0,-999,-99.99,,,-99.99,,2013-06-01 18:52:00,
2013-06-01 12:02:00,58.0,-99.9,30.18,NW,320,8.0,9.0,-999,-99.99,,,-99.99,,2013-06-01 19:02:00,
2013-06-01 12:12:00,58.0,-99.9,30.18,NW,320,8.0,9.0,-999,-99.99,,,-99.99,,2013-06-01 19:12:00,
2013-06-01 12:22:00,58.0,-99.9,30.18,NW,321,5.0,7.0,-999,-99.99,,,-99.99,,2013-06-01 19:22:00,
2013-06-01 12:32:00,58.0,-99.9,30.17,NNW,328,1.0,5.0,-999,-99.99,,,-99.99,,2013-06-01 19:32:00,
2013-06-01 12:42:00,59.0,-99.9,30.17,NW,313,2.0,2.0,-999,-99.99,,,-99.99,,2013-06-01 19:42:00,
2013-06-01 12:53:00,60.0,-99.9,30.17,NW,311,2.0,4.0,-999,-99.99,,,-99.99,,2013-06-01 19:53:00,
2013-06-01 13:02:00,60.0,-99.9,30.16,NW,310,5.0,6.0,-999,-99.99,,,-99.99,,2013-06-01 20:02:00,
2013-06-01 13:12:00,62.0,-99.9,30.16,NW,313,5.0,6.0,-999,-99.99,,,-99.99,,2013-06-01 20:12:00,
2013-06-01 13:22:00,62.0,-99.9,30.16,NW,319,1.0,6.0,-999,-99.99,,,-99.99,,2013-06-01 20:22:00,
2013-06-01 13:32:00,61.0,-99.9,30.16,NNW,332,2.0,4.0,-999,-99.99,,,-99.99,,2013-06-01 20:32:00,
2013-06-01 13:42:00,62.0,-99.9,30.15,NW,322,4.0,5.0,-999,-99.99,,,-99.99,,2013-06-01 20:42:00,
2013-06-01 13:52:00,63.0,-99.9,30.15,NW,320,5.0,5.0,-999,-99.99,,,-99.99,,2013-06-01 20:52:00,
2013-06-01 14:02:00,64.0,-99.9,30.15,NW,313,5.0,5.0,-999,-99.99,,,-99.99,,2013-06-01 21:02:00,
2013-06-01 14:12:00,65.0,-99.9,30.15,NNW,329,3.0,4.0,-999,-99.99,,,-99.99,,2013-06-01 21:12:00,
2013-06-01 14:22:00,65.0,-99.9,30.15,North,9,1.0,3.0,-999,-99.99,,,-99.99,,2013-06-01 21:22:00,
2013-06-01 14:33:00,65.0,-99.9,30.14,NW,324,0.0,4.0,-999,-99.99,,,-99.99,,2013-06-01 21:33:00,
2013-06-01 14:43:00,65.0,-99.9,30.14,NW,316,4.0,4.0,-999,-99.99,,,-99.99,,2013-06-01 21:43:00,
2013-06-01 14:54:00,65.0,-99.9,30.14,NW,313,4.0,4.0,-999,-99.99,,,-99.99,,2013-06-01 21:54:00,
2013-06-01 15:03:00,65.0,-99.9,30.14,NW,313,3.0,5.0,-999,-99.99,,,-99.99,,2013-06-01 22:03:00,
2013-06-01 15:12:00,67.0,-99.9,30.13,NW,307,3.0,4.0,-999,-99.99,,,-99.99,,2013-06-01 22:12:00,
2013-06-01 15:23:00,66.0,-99.9,30.13,NW,316,2.0,4.0,-999,-99.99,,,-99.99,,2013-06-01 22:23:00,
2013-06-01 15:33:00,65.0,-99.9,30.13,NW,318,4.0,5.0,-999,-99.99,,,-99.99,,2013-06-01 22:33:00,
2013-06-01 15:42:00,67.0,-99.9,30.12,WNW,303,4.0,4.0,-999,-99.99,,,-99.99,,2013-06-01 22:42:00,
2013-06-01 15:53:00,67.0,-99.9,30.12,NW,305,4.0,4.0,-999,-99.99,,,-99.99,,2013-06-01 22:53:00,
2013-06-01 16:02:00,67.0,-99.9,30.12,NW,306,3.0,5.0,-999,-99.99,,,-99.99,,2013-06-01 23:02:00,
2013-06-01 16:12:00,67.0,-99.9,30.12,NW,319,3.0,4.0,-999,-99.99,,,-99.99,,2013-06-01 23:12:00,
2013-06-01 16:22:00,66.0,-99.9,30.12,NW,318,3.0,7.0,-999,-99.99,,,-99.99,,2013-06-01 23:22:00,
2013-06-01 16:32:00,64.0,-99.9,30.11,NW,316,6.0,6.0,-999,-99.99,,,-99.99,,2013-06-01 23:32:00,
2013-06-01 16:42:00,65.0,-99.9,30.11,NW,318,9.0,11.0,-999,-99.99,,,-99.99,,2013-06-01 23:42:00,
2013-06-01 16:52:00,65.0,-99.9,30.11,NW,314,9.0,11.0,-999,-99.99,,,-99.99,,2013-06-01 23:52:00,
2013-06-01 17:02:00,67.0,-99.9,30.11,NW,311,3.0,7.0,-999,-99.99,,,-99.99,,2013-06-02 00:02:00,
2013-06-01 17:11:00,67.0,-99.9,30.10,NW,319,4.0,8.0,-999,-99.99,,,-99.99,,2013-06-02 00:11:00,
2013-06-01 17:22:00,66.0,-99.9,30.10,NW,320,15.0,18.0,-999,-99.99,,,-99.99,,2013-06-02 00:22:00,
2013-06-01 17:32:00,66.0,-99.9,30.09,NW,323,12.0,15.0,-999,-99.99,,,-99.99,,2013-06-02 00:32:00,
2013-06-01 17:42:00,67.0,-99.9,30.10,NNW,337,4.0,11.0,-999,-99.99,,,-99.99,,2013-06-02 00:42:00,
2013-06-01 17:52:00,67.0,-99.9,30.10,North,351,4.0,9.0,-999,-99.99,,,-99.99,,2013-06-02 00:52:00,
2013-06-01 18:02:00,65.0,-99.9,30.10,North,353,10.0,17.0,-999,-99.99,,,-99.99,,2013-06-02 01:02:00,
2013-06-01 18:11:00,64.0,-99.9,30.09,NNW,348,8.0,15.0,-999,-99.99,,,-99.99,,2013-06-02 01:11:00,
2013-06-01 18:22:00,64.0,-99.9,30.09,NNW,343,6.0,14.0,-999,-99.99,,,-99.99,,2013-06-02 01:22:00,
2013-06-01 18:32:00,64.0,-99.9,30.09,NNW,348,9.0,16.0,-999,-99.99,,,-99.99,,2013-06-02 01:32:00,
2013-06-01 18:42:00,63.0,-99.9,30.09,North,3,10.0,17.0,-999,-99.99,,,-99.99,,2013-06-02 01:42:00,
2013-06-01 18:52:00,64.0,-99.9,30.09,North,359,8.0,14.0,-999,-99.99,,,-99.99,,2013-06-02 01:52:00,
2013-06-01 19:02:00,64.0,-99.9,30.08,NNW,340,11.0,21.0,-999,-99.99,,,-99.99,,2013-06-02 02:02:00,
2013-06-01 19:12:00,65.0,-99.9,30.08,NNW,344,9.0,15.0,-999,-99.99,,,-99.99,,2013-06-02 02:12:00,
2013-06-01 19:22:00,65.0,-99.9,30.08,NNW,348,11.0,18.0,-999,-99.99,,,-99.99,,2013-06-02 02:22:00,
2013-06-01 19:32:00,64.0,-99.9,30.08,North,359,11.0,18.0,-999,-99.99,,,-99.99,,2013-06-02 02:32:00,
2013-06-01 19:42:00,64.0,-99.9,30.08,NNW,344,11.0,17.0,-999,-99.99,,,-99.99,,2013-06-02 02:42:00,
2013-06-01 19:52:00,63.0,-99.9,30.08,North,349,10.0,18.0,-999,-99.99,,,-99.99,,2013-06-02 02:52:00,
2013-06-01 20:02:00,63.0,-99.9,30.07,North,349,9.0,14.0,-999,-99.99,,,-99.99,,2013-06-02 03:02:00,
2013-06-01 20:11:00,63.0,-99.9,30.07,North,352,5.0,14.0,-999,-99.99,,,-99.99,,2013-06-02 03:11:00,
2013-06-01 20:22:00,62.0,-99.9,30.07,NNW,345,7.0,17.0,-999,-99.99,,,-99.99,,2013-06-02 03:22:00,
2013-06-01 20:33:00,62.0,-99.9,30.07,North,351,8.0,12.0,-999,-99.99,,,-99.99,,2013-06-02 03:33:00,
2013-06-01 20:43:00,62.0,-99.9,30.06,North,353,5.0,10.0,-999,-99.99,,,-99.99,,2013-06-02 03:43:00,
2013-06-01 20:53:00,61.0,-99.9,30.07,NNW,333,7.0,10.0,-999,-99.99,,,-99.99,,2013-06-02 03:53:00,
2013-06-01 21:03:00,61.0,-99.9,30.07,NNW,337,7.0,10.0,-999,-99.99,,,-99.99,,2013-06-02 04:03:00,
2013-06-01 21:13:00,61.0,-99.9,30.07,NNE,17,6.0,12.0,-999,-99.99,,,-99.99,,2013-06-02 04:13:00,
2013-06-01 21:23:00,60.0,-99.9,30.07,NNE,23,9.0,15.0,-999,-99.99,,,-99.99,,2013-06-02 04:23:00,
2013-06-01 21:33:00,60.0,-99.9,30.08,North,353,8.0,17.0,-999,-99.99,,,-99.99,,2013-06-02 04:33:00,
2013-06-01 21:43:00,60.0,-99.9,30.07,North,351,8.0,22.0,-999,-99.99,,,-99.99,,2013-06-02 04:43:00,
2013-06-01 21:53:00,60.0,-99.9,30.08,NNW,342,8.0,18.0,-999,-99.99,,,-99.99,,2013-06-02 04:53:00,
2013-06-01 22:03:00,60.0,-99.9,30.08,North,353,10.0,17.0,-999,-99.99,,,-99.99,,2013-06-02 05:03:00,
2013-06-01 22:12:00,60.0,-99.9,30.08,NNW,348,9.0,20.0,-999,-99.99,,,-99.99,,2013-06-02 05:12:00,
2013-06-01 22:23:00,60.0,-99.9,30.08,NNW,347,9.0,16.0,-999,-99.99,,,-99.99,,2013-06-02 05:23:00,
2013-06-01 22:32:00,60.0,-99.9,30.08,NNW,339,10.0,18.0,-999,-99.99,,,-99.99,,2013-06-02 05:32:00,
2013-06-01 22:42:00,60.0,-99.9,30.08,NNW,342,12.0,16.0,-999,-99.99,,,-99.99,,2013-06-02 05:42:00,
2013-06-01 22:52:00,60.0,-99.9,30.08,North,353,9.0,19.0,-999,-99.99,,,-99.99,,2013-06-02 05:52:00,
2013-06-01 23:01:00,60.0,-99.9,30.08,NNW,343,6.0,16.0,-999,-99.99,,,-99.99,,2013-06-02 06:01:00,
2013-06-01 23:12:00,60.0,-99.9,30.08,NNW,348,8.0,16.0,-999,-99.99,,,-99.99,,2013-06-02 06:12:00,
2013-06-01 23:22:00,60.0,-99.9,30.08,North,349,6.0,12.0,-999,-99.99,,,-99.99,,2013-06-02 06:22:00,
2013-06-01 23:32:00,60.0,-99.9,30.08,North,7,4.0,11.0,-999,-99.99,,,-99.99,,2013-06-02 06:32:00,
2013-06-01 23:42:00,60.0,-99.9,30.08,NNW,327,3.0,6.0,-999,-99.99,,,-99.99,,2013-06-02 06:42:00,
2013-06-01 23:52:00,60.0,-99.9,30.08,WNW,303,5.0,9.0,-999,-99.99,,,-99.99,,2013-06-02 06:52:00,